Weather Roundup
Issued by NWS

Home | Current Version | Previous Version | Text Only | Print | Product List | Glossary On
Versions: 1 2 3 4 5 6 7 8 9 10 11 12 13 14 15 16 17 18 19 20 21 22 23 24 25 26 27 28 29 30 31 32 33 34 35 36 37 38 39 40 41 42 43 44 45 46 47 48 49 50
964
NZUS93 KARX 191010
HRRWXR

CURRENT HOURLY OBSERVATIONS ACROSS
MUCH OF THE UPPER MISSISSIPPI VALLEY
NATIONAL WEATHER SERVICE LA CROSSE WI
400 AM CST MON FEB 19 2018


...SOUTHEAST MINNESOTA...


CITY           SKY/WX    TMP DP  RH WIND       PRES   REMARKS
ROCHESTER      FAIR      30  28  92 N5        29.71S WCI  25
ROCHESTER/MAYO FAIR      31  28  91 NW5       29.73R WCI  26
WINONA         FAIR      30  28  93 CALM      29.74R
AUSTIN         MOCLDY    30  28  93 NW5       29.71R WCI  25
ALBERT LEA     CLOUDY    27  27 100 N10       29.73R WCI  17
DODGE CENTER   FAIR      25  23  93 N13       29.73S WCI  13
PRESTON        FAIR      32  28  84 S5        29.72R WCI  27
OWATONNA       FAIR      25  21  86 N14       29.75S WCI  13
FARIBAULT      MOCLDY    25  21  86 N13G18    29.77F WCI  13
$$

...ELSEWHERE IN MINNESOTA...


CITY           SKY/WX    TMP DP  RH WIND       PRES   REMARKS
MINNEAPOLIS    CLOUDY    25  21  85 N17G24    29.81R WCI  12
INTNL FALLS    FAIR       4  -1  80 N8        30.12R WCI  -9
DULUTH         CLOUDY    12   7  80 N12       29.93R WCI  -2
RED WING       FAIR      27  21  80 CALM      29.79R
REDWOOD FALLS  CLOUDY    18  11  74 N12G23    29.85R WCI   5
MANKATO        CLOUDY    26  22  84 N17       29.76F WCI  13
WORTHINGTON    CLOUDY    16  13  88 N24G32    29.78R WCI  -2
FAIRMONT       CLOUDY    24  21  88 N18       29.78R WCI  10
$$

...SOUTHWEST WISCONSIN...


CITY           SKY/WX    TMP DP  RH WIND       PRES   REMARKS
LA CROSSE      FAIR      36  29  75 CALM      29.75R
PRAIRIE DU CHI CLOUDY    38  29  69 E5        29.75S WCI  35
BOSCOBEL       CLOUDY    35  30  82 CALM      29.76S
LONE ROCK      NOT AVBL
PLATTEVILLE    FAIR      36  33  88 SE7       29.77S WCI  31
FORT MC COY    FAIR      34  29  82 CALM      29.76R
CAMP DOUGLAS   CLOUDY    37  30  77 CALM      29.74F
MAUSTON-NEW LI CLOUDY    35  30  84 CALM      29.75S
VIROQUA        CLOUDY    36  32  85 SE5       29.73S WCI  32
WIS DELLS      CLOUDY    38  30  74 S5        29.77R WCI  34
$$

...ELSEWHERE IN WISCONSIN...


CITY           SKY/WX    TMP DP  RH WIND       PRES   REMARKS
MILWAUKEE      CLOUDY    39  33  79 S6        29.82F WCI  35
MADISON        CLOUDY    35  31  85 S6        29.81R WCI  30
GREEN BAY      CLOUDY    35  28  75 CALM      29.80F
EAU CLAIRE     MOCLDY    26  24  92 N5        29.78R WCI  20
BLACK RVR FLS  FAIR      25  25 100 CALM      29.76R
MEDFORD        FAIR      19  18  95 NE3       29.76R FOG
WAUSAU         FAIR      24  23  96 CALM      29.76R FOG
WIS RAPIDS     FAIR      25  22  88 CALM      29.77S
MARSHFIELD     FAIR      23  22  96 NE5       29.74S FOG     WCI  17
RICE LAKE      CLOUDY    26  23  89 N16G24    29.83R WCI  13
$$

...NORTHEAST IOWA...


CITY           SKY/WX    TMP DP  RH WIND       PRES   REMARKS
WATERLOO       MOCLDY    36  31  82 SE9       29.70F WCI  29
DUBUQUE        FAIR      35  30  82 S9        29.75S WCI  28
DECORAH        CLOUDY    37  30  75 S7        29.71S WCI  32
MASON CITY     CLOUDY    31  28  89 NW13      29.71S WCI  21
CHARLES CITY   FAIR      34  34 100 E7        29.70S WCI  28
OELWEIN        FAIR      36  36 100 SE10      29.71F WCI  28
$$

...ELSEWHERE IN IOWA...


CITY           SKY/WX    TMP DP  RH WIND       PRES   REMARKS
DES MOINES     DRIZZLE   44  39  82 S12       29.66F
IOWA CITY      FAIR      37  30  75 SE5       29.76F WCI  33
FORT DODGE     CLOUDY    29  26  89 N13       29.70S WCI  19
MARSHALLTOWN   CLOUDY    36  32  85 SE9       29.67F WCI  29
CEDAR RAPIDS   FAIR      38  32  79 SE7       29.72F WCI  33
$$

...NORTHERN ILLINOIS...


CITY           SKY/WX    TMP DP  RH WIND       PRES   REMARKS
CHICAGO-OHARE  CLOUDY    39  36  89 S7        29.85S WCI  34
CHICAGO-MIDWAY DRIZZLE   39  38  96 S7        29.86F FOG     WCI  34
MOLINE         FAIR      39  35  86 E6        29.77F WCI  35
ROCKFORD       CLOUDY    36  33  89 S5        29.84S WCI  32
PEORIA         CLOUDY    44  40  85 S8        29.85S
$$

NOTE: "FAIR" INDICATES FEW OR NO CLOUDS BELOW 12,000 FEET WITH NO
SIGNIFICANT WEATHER AND/OR OBSTRUCTIONS TO VISIBILITY. WIND
SPEEDS ARE IN MILES-PER-HOUR.




USA.gov is the U.S. government's official web portal to all federal, state and local government web resources and services.